FDX1178 KMSN-KEWR

Flight info

Callsign FDX1178
Flight time N/A
Altitude 37000
Route BAE J34 CRL J190 SLT FQM3
Aircraft MD11/H-SDE1E2E3FGHIJ2J3J4J5M1RWXY/LB1D1

Departure

Time 2026-04-20 23:34
Airport Dane County Regional Truax Field (KMSN)

Arrival

Time N/A
Airport Newark Liberty International Airport (KEWR)
Time Latitude Longitude Altitude Speed Heading
2026-04-20 23:19 43.13263 -89.32681 875 ft 0 kts 225°
2026-04-20 23:23 43.13272 -89.32669 876 ft 3 kts 227°
2026-04-20 23:24 43.13285 -89.32648 876 ft 3 kts 229°
2026-04-20 23:24 43.13298 -89.32628 876 ft 2 kts 227°
2026-04-20 23:24 43.13308 -89.32615 876 ft 3 kts 262°
2026-04-20 23:24 43.13310 -89.32605 876 ft 3 kts 310°
2026-04-20 23:25 43.13301 -89.32593 875 ft 3 kts 350°
2026-04-20 23:25 43.13291 -89.32591 875 ft 2 kts
2026-04-20 23:25 43.13272 -89.32592 875 ft 3 kts
2026-04-20 23:25 43.13258 -89.32593 875 ft 1 kts
2026-04-20 23:26 43.13257 -89.32593 875 ft 0 kts
2026-04-20 23:28 43.13284 -89.32594 875 ft 16 kts 356°
2026-04-20 23:28 43.13450 -89.32745 873 ft 35 kts 316°
2026-04-20 23:29 43.13568 -89.32889 873 ft 13 kts 332°
2026-04-20 23:29 43.13640 -89.32879 872 ft 10 kts 15°
2026-04-20 23:29 43.13705 -89.32854 872 ft 10 kts 15°
2026-04-20 23:29 43.13772 -89.32822 873 ft 11 kts 32°
2026-04-20 23:30 43.13844 -89.32761 873 ft 13 kts 11°
2026-04-20 23:30 43.13919 -89.32815 875 ft 13 kts 316°
2026-04-20 23:30 43.14003 -89.32924 875 ft 18 kts 316°
2026-04-20 23:30 43.14169 -89.33138 873 ft 34 kts 317°
2026-04-20 23:31 43.14340 -89.33358 871 ft 33 kts 317°
2026-04-20 23:31 43.14499 -89.33562 873 ft 30 kts 316°
2026-04-20 23:31 43.14642 -89.33744 876 ft 27 kts 317°
2026-04-20 23:31 43.14800 -89.33801 878 ft 23 kts
2026-04-20 23:32 43.14872 -89.33814 878 ft 2 kts 323°
2026-04-20 23:32 43.14884 -89.33840 878 ft 7 kts 296°
2026-04-20 23:32 43.14894 -89.33950 878 ft 17 kts 273°
2026-04-20 23:32 43.14890 -89.34082 874 ft 6 kts 239°
2026-04-20 23:33 43.14869 -89.34104 874 ft 1 kts 202°
2026-04-20 23:33 43.14865 -89.34106 874 ft 0 kts 202°
2026-04-20 23:33 43.14860 -89.34106 874 ft 4 kts 190°
2026-04-20 23:33 43.14513 -89.34122 877 ft 97 kts 182°
2026-04-20 23:34 43.13575 -89.34169 895 ft 168 kts 184°
2026-04-20 23:34 43.12324 -89.34222 1436 ft 188 kts 182°
2026-04-20 23:34 43.10934 -89.34259 2076 ft 211 kts 176°
2026-04-20 23:34 43.09493 -89.33512 2638 ft 237 kts 143°
2026-04-20 23:35 43.08541 -89.31618 3377 ft 248 kts 115°